When you browse on this site, cookies collect data to enhance your experience and personalize the content and advertising you see.
Visit our Privacy Policy to learn more. By continuing to use the site, you agree to this use of cookies and data.
  • In Romania
  • List of Countries
  • For 7 days
  • Water Temperature
  • Weather Map
  • Weather Widgets
  • user-avatar
    Login

    Hourly Weather Tuzla

    Today, 23 February, Sunday

    Time Temperature Precipitation Wind Pressure Humidity
    00:00 +3°C° 0 mm 2 mps 730 mmHg 56%
    01:00 +3°C° 0 mm 2 mps 729 mmHg 55%
    02:00 +3°C° 0 mm 2 mps 729 mmHg 54%
    03:00 +3°C° 0 mm 2 mps 728 mmHg 52%
    04:00 +3°C° 0 mm 2 mps 728 mmHg 51%
    05:00 +3°C° 0 mm 2 mps 728 mmHg 50%
    06:00 +3°C° 0 mm 2 mps 728 mmHg 49%
    07:00 +4°C° 0 mm 2 mps 728 mmHg 47%
    08:00 +7°C° 0 mm 1 mps 728 mmHg 45%
    09:00 +9°C° 0 mm 1 mps 728 mmHg 43%
    10:00 +10°C° 0 mm 0 mps 728 mmHg 41%
    11:00 +11°C° 0 mm 0 mps 728 mmHg 40%
    12:00 +12°C° 0 mm 0 mps 727 mmHg 38%
    13:00 +13°C° 0 mm 0 mps 727 mmHg 37%
    14:00 +13°C° 0 mm 0 mps 726 mmHg 41%
    15:00 +13°C° 0 mm 0 mps 725 mmHg 45%
    16:00 +12°C° 0 mm 0 mps 725 mmHg 49%
    17:00 +11°C° 0 mm 0 mps 725 mmHg 52%
    18:00 +11°C° 0 mm 1 mps 725 mmHg 56%
    19:00 +9°C° 0 mm 1 mps 725 mmHg 59%
    20:00 +9°C° 0 mm 1 mps 724 mmHg 61%
    21:00 +8°C° 0 mm 2 mps 724 mmHg 64%
    22:00 +7°C° 0 mm 2 mps 723 mmHg 66%
    23:00 +7°C° 0 mm 2 mps 723 mmHg 68%

    Tomorrow, 24 February, Monday

    Time Temperature Precipitation Wind Pressure Humidity
    00:00 +6°C° 0 mm 2 mps 723 mmHg 70%
    01:00 +6°C° 0 mm 2 mps 723 mmHg 72%
    02:00 +5°C° 0 mm 2 mps 723 mmHg 73%
    03:00 +5°C° 0 mm 2 mps 723 mmHg 74%
    04:00 +6°C° 0 mm 1 mps 723 mmHg 75%
    05:00 +6°C° 0 mm 1 mps 723 mmHg 75%
    06:00 +6°C° 0 mm 1 mps 724 mmHg 75%
    07:00 +6°C° 0 mm 1 mps 725 mmHg 76%
    08:00 +7°C° 0 mm 1 mps 725 mmHg 76%
    09:00 +7°C° 0 mm 2 mps 726 mmHg 75%
    10:00 +7°C° 0 mm 2 mps 726 mmHg 75%
    11:00 +8°C° 0 mm 1 mps 726 mmHg 74%
    12:00 +9°C° 0 mm 1 mps 726 mmHg 73%
    13:00 +9°C° 0 mm 1 mps 726 mmHg 72%
    14:00 +9°C° 0 mm 1 mps 726 mmHg 65%
    15:00 +8°C° 0 mm 0 mps 726 mmHg 58%
    16:00 +9°C° 0 mm 0 mps 725 mmHg 51%
    17:00 +8°C° 0 mm 0 mps 725 mmHg 56%
    18:00 +7°C° 0 mm 1 mps 725 mmHg 61%
    19:00 +6°C° 0 mm 1 mps 725 mmHg 66%
    20:00 +6°C° 0 mm 1 mps 725 mmHg 70%
    21:00 +5°C° 0 mm 2 mps 724 mmHg 73%
    22:00 +5°C° 0 mm 2 mps 724 mmHg 76%
    23:00 +5°C° 0 mm 2 mps 723 mmHg 79%

    Day after tomorrow, 25 February, Tuesday

    Time Temperature Precipitation Wind Pressure Humidity
    00:00 +5°C° 0 mm 2 mps 723 mmHg 81%
    01:00 +4°C° 0 mm 2 mps 722 mmHg 84%
    02:00 +4°C° 0 mm 2 mps 722 mmHg 84%
    03:00 +4°C° 0 mm 2 mps 721 mmHg 84%
    04:00 +4°C° 0 mm 2 mps 720 mmHg 84%
    05:00 +4°C° 0 mm 2 mps 720 mmHg 84%
    06:00 +4°C° 0 mm 2 mps 720 mmHg 84%
    07:00 +5°C° 0 mm 1 mps 719 mmHg 84%
    08:00 +8°C° 0 mm 1 mps 719 mmHg 78%
    09:00 +10°C° 0 mm 1 mps 719 mmHg 71%
    10:00 +12°C° 0 mm 1 mps 719 mmHg 64%
    11:00 +13°C° 0 mm 1 mps 719 mmHg 60%
    12:00 +14°C° 0 mm 1 mps 719 mmHg 56%
    13:00 +16°C° 0 mm 1 mps 718 mmHg 52%
    14:00 +15°C° 0 mm 1 mps 718 mmHg 55%
    15:00 +15°C° 0 mm 1 mps 717 mmHg 59%
    16:00 +14°C° 0 mm 2 mps 717 mmHg 62%
    17:00 +13°C° 0 mm 2 mps 716 mmHg 67%
    18:00 +10°C° 0 mm 2 mps 716 mmHg 73%
    19:00 +9°C° 0 mm 2 mps 716 mmHg 79%
    20:00 +8°C° 0 mm 2 mps 716 mmHg 81%
    21:00 +8°C° 0 mm 2 mps 715 mmHg 84%
    22:00 +7°C° 0 mm 2 mps 715 mmHg 86%
    23:00 +7°C° 0 mm 2 mps 714 mmHg 86%

    26 February, Wednesday

    Time Temperature Precipitation Wind Pressure Humidity
    00:00 +7°C° 0 mm 2 mps 714 mmHg 86%
    01:00 +7°C° 0 mm 2 mps 713 mmHg 86%
    02:00 +7°C° 0 mm 2 mps 712 mmHg 86%
    03:00 +7°C° 0 mm 2 mps 712 mmHg 85%
    04:00 +7°C° 0 mm 2 mps 711 mmHg 85%
    05:00 +7°C° 0 mm 2 mps 710 mmHg 85%
    06:00 +7°C° 0 mm 2 mps 710 mmHg 84%
    07:00 +7°C° 0 mm 2 mps 709 mmHg 84%
    08:00 +9°C° 0 mm 3 mps 709 mmHg 77%
    09:00 +10°C° 0 mm 4 mps 709 mmHg 69%
    10:00 +12°C° 0 mm 5 mps 708 mmHg 62%
    11:00 +12°C° 0 mm 5 mps 708 mmHg 62%
    12:00 +12°C° 0 mm 5 mps 707 mmHg 61%
    13:00 +12°C° 0 mm 5 mps 707 mmHg 61%
    14:00 +12°C° 0.3 mm 5 mps 707 mmHg 61%
    15:00 +12°C° 0.3 mm 5 mps 707 mmHg 61%
    16:00 +11°C° 0.3 mm 4 mps 706 mmHg 61%
    17:00 +10°C° 0.2 mm 3 mps 706 mmHg 68%
    18:00 +8°C° 0.2 mm 2 mps 706 mmHg 76%
    19:00 +8°C° 0.2 mm 1 mps 707 mmHg 83%
    20:00 +7°C° 0.2 mm 1 mps 707 mmHg 84%
    21:00 +6°C° 0.2 mm 2 mps 707 mmHg 85%
    22:00 +5°C° 0.2 mm 2 mps 707 mmHg 86%
    23:00 +5°C° 1.2 mm 2 mps 707 mmHg 89%

    27 February, Thursday

    Time Temperature Precipitation Wind Pressure Humidity
    00:00 +4°C° 1.2 mm 2 mps 707 mmHg 91%
    01:00 +3°C° 1.2 mm 2 mps 707 mmHg 93%
    02:00 +2°C° 2.4 mm 2 mps 708 mmHg 94%
    03:00 +1°C° 2.4 mm 3 mps 708 mmHg 95%
    04:00 -1°C° 2.4 mm 4 mps 708 mmHg 97%
    05:00 -2°C° 1.8 mm 4 mps 709 mmHg 96%
    06:00 -2°C° 1.8 mm 4 mps 710 mmHg 96%
    07:00 -3°C° 1.8 mm 4 mps 711 mmHg 96%
    08:00 -2°C° 1.3 mm 4 mps 712 mmHg 94%
    09:00 -2°C° 1.3 mm 5 mps 713 mmHg 93%
    10:00 -1°C° 1.3 mm 5 mps 714 mmHg 92%
    11:00 -1°C° 0.4 mm 5 mps 714 mmHg 91%
    12:00 0°C° 0.4 mm 5 mps 715 mmHg 89%
    13:00 0°C° 0.4 mm 5 mps 715 mmHg 88%
    14:00 0°C° 0.1 mm 5 mps 716 mmHg 85%
    15:00 +1°C° 0.1 mm 5 mps 717 mmHg 82%
    16:00 +1°C° 0.1 mm 4 mps 717 mmHg 79%
    17:00 0°C° 0 mm 4 mps 718 mmHg 80%
    18:00 0°C° 0 mm 3 mps 718 mmHg 82%
    19:00 -1°C° 0 mm 2 mps 719 mmHg 83%
    20:00 -2°C° 0 mm 2 mps 719 mmHg 84%
    21:00 -2°C° 0 mm 2 mps 720 mmHg 85%
    22:00 -1°C° 0 mm 1 mps 720 mmHg 86%
    23:00 -1°C° 0 mm 1 mps 720 mmHg 86%

    28 February, Friday

    Time Temperature Precipitation Wind Pressure Humidity
    00:00 -1°C° 0 mm 1 mps 720 mmHg 86%
    01:00 -2°C° 0 mm 1 mps 721 mmHg 86%
    02:00 -2°C° 0 mm 1 mps 721 mmHg 86%
    03:00 -2°C° 0 mm 1 mps 721 mmHg 86%
    04:00 -2°C° 0 mm 1 mps 721 mmHg 86%
    05:00 -4°C° 0 mm 2 mps 721 mmHg 85%
    06:00 -4°C° 0 mm 2 mps 721 mmHg 85%
    07:00 -4°C° 0 mm 2 mps 721 mmHg 84%
    08:00 -1°C° 0 mm 2 mps 721 mmHg 81%
    09:00 +2°C° 0 mm 2 mps 722 mmHg 78%
    10:00 +5°C° 0 mm 1 mps 722 mmHg 75%
    11:00 +6°C° 0 mm 1 mps 722 mmHg 73%
    12:00 +7°C° 0 mm 1 mps 722 mmHg 71%
    13:00 +8°C° 0 mm 1 mps 722 mmHg 69%
    14:00 +8°C° 0 mm 1 mps 722 mmHg 72%
    15:00 +8°C° 0 mm 1 mps 722 mmHg 76%
    16:00 +8°C° 0 mm 1 mps 721 mmHg 80%
    17:00 +7°C° 0 mm 1 mps 722 mmHg 81%
    18:00 +5°C° 0 mm 1 mps 722 mmHg 81%
    19:00 +4°C° 0 mm 1 mps 722 mmHg 82%
    20:00 +4°C° 0 mm 1 mps 722 mmHg 82%
    21:00 +2°C° 0 mm 2 mps 722 mmHg 82%
    22:00 +2°C° 0 mm 2 mps 722 mmHg 82%
    23:00 +2°C° 0 mm 2 mps 722 mmHg 82%
    Show more